"read_dt","SO2 (ppb)","flags","PMT voltage (V)","lamp voltage (V)","lamp intensity (Hz)","internal temp (C)","react chamber temp (C)","sample flow (l/min)","pres (mmHg)","SO2 bkg (ppb)","SO2 coefficient"
2014-04-26 00:00:00,2859E-2,5C000000,-0724,1003,10409,025.0,045.2,0.541,748.7,01.17,0.508
2014-04-26 00:01:00,2899E-2,5C000000,-0724,1004,10641,025.0,045.2,0.545,748.7,01.17,0.508
2014-04-26 00:02:00,2890E-2,5C000000,-0724,1003,10585,025.0,045.2,0.544,748.7,01.17,0.508
2014-04-26 00:03:00,2839E-2,5C000000,-0724,1004,10455,025.0,045.2,0.541,748.6,01.17,0.508
2014-04-26 00:04:00,2866E-2,5C000000,-0724,1004,10478,025.0,045.2,0.540,748.6,01.17,0.508
2014-04-26 00:05:00,2882E-2,5C000000,-0724,1004,10497,025.0,045.2,0.545,748.7,01.17,0.508
2014-04-26 00:06:00,2857E-2,5C000000,-0724,1003,10471,025.0,045.2,0.547,748.7,01.17,0.508
2014-04-26 00:07:00,2916E-2,5C000000,-0724,1004,10525,025.0,045.2,0.547,748.7,01.17,0.508
2014-04-26 00:08:00,2866E-2,5C000000,-0724,1005,10364,025.0,045.2,0.552,748.8,01.17,0.508
2014-04-26 00:09:00,2886E-2,5C000000,-0724,1004,10440,025.0,045.2,0.551,748.8,01.17,0.508
2014-04-26 00:10:00,2891E-2,5C000000,-0724,1004,10597,025.0,045.2,0.552,748.8,01.17,0.508
2014-04-26 00:11:00,2883E-2,5C000000,-0724,1005,10512,025.0,045.2,0.564,748.9,01.17,0.508
2014-04-26 00:12:00,2898E-2,5C000000,-0724,1006,10372,025.0,045.2,0.566,748.9,01.17,0.508
2014-04-26 00:13:00,2846E-2,5C000000,-0724,1006,10519,025.0,045.2,0.564,748.9,01.17,0.508
2014-04-26 00:14:00,2895E-2,5C000000,-0724,1006,10435,025.0,045.2,0.571,749.0,01.17,0.508
2014-04-26 00:15:00,2847E-2,5C000000,-0724,1005,10593,025.0,045.2,0.572,749.0,01.17,0.508
2014-04-26 00:16:00,2872E-2,5C000000,-0724,1003,10292,025.0,045.2,0.577,749.0,01.17,0.508
2014-04-26 00:17:00,2871E-2,5C000000,-0724,1005,10636,025.0,045.2,0.579,749.0,01.17,0.508
2014-04-26 00:18:00,2906E-2,5C000000,-0724,1004,10472,025.0,045.2,0.581,749.1,01.17,0.508
2014-04-26 00:19:00,2834E-2,5C000000,-0724,1004,10589,025.0,045.2,0.581,749.0,01.17,0.508
2014-04-26 00:20:00,2848E-2,5C000000,-0724,1006,10545,025.0,045.2,0.580,749.0,01.17,0.508
2014-04-26 00:21:00,2858E-2,5C000000,-0724,1004,10503,025.0,045.2,0.582,749.0,01.17,0.508
2014-04-26 00:22:00,2881E-2,5C000000,-0724,1003,10426,025.0,045.2,0.581,749.0,01.17,0.508
2014-04-26 00:23:00,2847E-2,5C000000,-0724,1005,10573,025.0,045.2,0.587,749.1,01.17,0.508
2014-04-26 00:24:00,2857E-2,5C000000,-0724,1004,10633,025.0,045.2,0.590,749.1,01.17,0.508
2014-04-26 00:25:00,2820E-2,5C000000,-0724,1005,10452,025.0,045.2,0.590,749.1,01.17,0.508
2014-04-26 00:26:00,2884E-2,5C000000,-0724,1005,10564,025.0,045.2,0.591,749.1,01.17,0.508
2014-04-26 00:27:00,2852E-2,5C000000,-0724,1005,10469,025.0,045.2,0.591,749.1,01.17,0.508
2014-04-26 00:28:00,2857E-2,5C000000,-0724,1006,10489,025.0,045.2,0.593,749.2,01.17,0.508
2014-04-26 00:29:00,2882E-2,5C000000,-0724,1005,10566,025.0,045.2,0.590,749.1,01.17,0.508
2014-04-26 00:30:00,2869E-2,5C000000,-0724,1005,10359,025.0,045.2,0.592,749.1,01.17,0.508
2014-04-26 00:31:00,2888E-2,5C000000,-0724,1005,10312,025.0,045.2,0.595,749.2,01.17,0.508
2014-04-26 00:32:00,2885E-2,5C000000,-0724,1005,10257,025.0,045.2,0.593,749.2,01.17,0.508
2014-04-26 00:33:00,2857E-2,5C000000,-0724,1005,10547,025.0,045.2,0.591,749.1,01.17,0.508
2014-04-26 00:34:00,2828E-2,5C000000,-0724,1005,10512,025.0,045.2,0.595,749.2,01.17,0.508
2014-04-26 00:35:00,2847E-2,5C000000,-0724,1005,10401,025.0,045.2,0.602,749.2,01.17,0.508
2014-04-26 00:36:00,2879E-2,5C000000,-0724,1005,10566,025.0,045.2,0.603,749.2,01.17,0.508
2014-04-26 00:37:00,2869E-2,5C000000,-0724,1006,10160,025.0,045.2,0.607,749.3,01.17,0.508
2014-04-26 00:38:00,2861E-2,5C000000,-0724,1005,10476,025.0,045.2,0.605,749.3,01.17,0.508
2014-04-26 00:39:00,2895E-2,5C000000,-0724,1005,10518,025.0,045.2,0.601,749.2,01.17,0.508
2014-04-26 00:40:00,2871E-2,5C000000,-0724,1005,10261,025.0,045.2,0.603,749.2,01.17,0.508
2014-04-26 00:41:00,2830E-2,5C000000,-0724,1006,10468,025.0,045.2,0.604,749.3,01.17,0.508
2014-04-26 00:42:00,2873E-2,5C000000,-0724,1005,10357,025.0,045.2,0.603,749.3,01.17,0.508
2014-04-26 00:43:00,2912E-2,5C000000,-0724,1006,10494,025.0,045.2,0.606,749.3,01.17,0.508
2014-04-26 00:44:00,2865E-2,5C000000,-0724,1007,10425,025.0,045.2,0.610,749.3,01.17,0.508
2014-04-26 00:45:00,2915E-2,5C000000,-0724,1006,10424,025.0,045.2,0.607,749.3,01.17,0.508
2014-04-26 00:46:00,2902E-2,5C000000,-0724,1005,10529,025.0,045.2,0.605,749.3,01.17,0.508
2014-04-26 00:47:00,2843E-2,5C000000,-0724,1005,10579,025.0,045.2,0.612,749.4,01.17,0.508
2014-04-26 00:48:00,2849E-2,5C000000,-0724,1004,10479,025.0,045.2,0.609,749.3,01.17,0.508
2014-04-26 00:49:00,2837E-2,5C000000,-0724,1005,10552,025.0,045.2,0.611,749.3,01.17,0.508
2014-04-26 00:50:00,2832E-2,5C000000,-0724,1005,10512,025.0,045.2,0.610,749.4,01.17,0.508
2014-04-26 00:51:00,2811E-2,5C000000,-0724,1005,10338,025.0,045.2,0.607,749.3,01.17,0.508
2014-04-26 00:52:00,2839E-2,5C000000,-0724,1006,10367,025.0,045.2,0.609,749.3,01.17,0.508
2014-04-26 00:53:00,2814E-2,5C000000,-0724,1005,10436,025.0,045.2,0.606,749.3,01.17,0.508
2014-04-26 00:54:00,2835E-2,5C000000,-0724,1006,10429,025.0,045.2,0.606,749.3,01.17,0.508
2014-04-26 00:55:00,2833E-2,5C000000,-0724,1005,10523,025.0,045.2,0.609,749.3,01.17,0.508
2014-04-26 00:56:00,2820E-2,5C000000,-0724,1004,10352,025.0,045.2,0.604,749.3,01.17,0.508
2014-04-26 00:57:00,2765E-2,5C000000,-0724,1005,10544,025.0,045.2,0.607,749.3,01.17,0.508
2014-04-26 00:58:00,2777E-2,5C000000,-0724,1006,10370,025.0,045.2,0.611,749.4,01.17,0.508
2014-04-26 00:59:00,2777E-2,5C000000,-0724,1005,10394,025.0,045.2,0.610,749.4,01.17,0.508
2014-04-26 01:00:00,2733E-2,5C000000,-0724,1005,10450,025.0,045.2,0.608,749.4,01.17,0.508
2014-04-26 01:01:00,2813E-2,5C000000,-0724,1005,10367,025.0,045.2,0.608,749.4,01.17,0.508
2014-04-26 01:02:00,2819E-2,5C000000,-0724,1006,10369,025.0,045.2,0.609,749.5,01.17,0.508
2014-04-26 01:03:00,2804E-2,5C000000,-0724,1006,10442,025.0,045.2,0.607,749.4,01.17,0.508
2014-04-26 01:04:00,2806E-2,5C000000,-0724,1006,10584,025.0,045.2,0.606,749.4,01.17,0.508
2014-04-26 01:05:00,2792E-2,5C000000,-0724,1006,10417,025.0,045.2,0.605,749.4,01.17,0.508
2014-04-26 01:06:00,2777E-2,5C000000,-0724,1006,10479,025.0,045.2,0.607,749.5,01.17,0.508
2014-04-26 01:07:00,2788E-2,5C000000,-0724,1006,10348,025.0,045.2,0.607,749.5,01.17,0.508
2014-04-26 01:08:00,2843E-2,5C000000,-0724,1006,10628,025.0,045.2,0.606,749.4,01.17,0.508
2014-04-26 01:09:00,2772E-2,5C000000,-0724,1007,10424,025.0,045.2,0.602,749.4,01.17,0.508
2014-04-26 01:10:00,2786E-2,5C000000,-0724,1006,10516,025.0,045.2,0.604,749.4,01.17,0.508
2014-04-26 01:11:00,2800E-2,5C000000,-0724,1007,10504,025.0,045.2,0.606,749.5,01.17,0.508
2014-04-26 01:12:00,2803E-2,5C000000,-0724,1008,10538,025.0,045.2,0.607,749.5,01.17,0.508
2014-04-26 01:13:00,2842E-2,5C000000,-0724,1008,10512,025.0,045.2,0.609,749.5,01.17,0.508
2014-04-26 01:14:00,2820E-2,5C000000,-0724,1008,10468,025.0,045.2,0.608,749.5,01.17,0.508
2014-04-26 01:15:00,2790E-2,5C000000,-0724,1009,10250,025.0,045.2,0.609,749.5,01.17,0.508
2014-04-26 01:16:00,2792E-2,5C000000,-0724,1009,10489,025.0,045.2,0.605,749.5,01.17,0.508
2014-04-26 01:17:00,2803E-2,5C000000,-0724,1008,10348,025.0,045.2,0.603,749.4,01.17,0.508
2014-04-26 01:18:00,2834E-2,5C000000,-0724,1007,10341,025.0,045.2,0.604,749.5,01.17,0.508
2014-04-26 01:19:00,2805E-2,5C000000,-0724,1007,10438,025.0,045.2,0.605,749.5,01.17,0.508
2014-04-26 01:20:00,2837E-2,5C000000,-0724,1008,10452,025.0,045.2,0.605,749.5,01.17,0.508
2014-04-26 01:21:00,2832E-2,5C000000,-0724,1008,10563,025.1,045.2,0.604,749.5,01.17,0.508
2014-04-26 01:22:00,2856E-2,5C000000,-0724,1008,10429,025.1,045.2,0.603,749.5,01.17,0.508
2014-04-26 01:23:00,2847E-2,5C000000,-0724,1008,10345,025.1,045.2,0.607,749.6,01.17,0.508
2014-04-26 01:24:00,2860E-2,5C000000,-0724,1009,10405,025.1,045.2,0.606,749.6,01.17,0.508
2014-04-26 01:25:00,2808E-2,5C000000,-0724,1008,10454,025.1,045.2,0.604,749.5,01.17,0.508
2014-04-26 01:26:00,2832E-2,5C000000,-0724,1008,10387,025.1,045.2,0.604,749.5,01.17,0.508
2014-04-26 01:27:00,2847E-2,5C000000,-0724,1010,10561,025.1,045.2,0.604,749.5,01.17,0.508
2014-04-26 01:28:00,2836E-2,5C000000,-0724,1008,10322,025.1,045.2,0.602,749.5,01.17,0.508
2014-04-26 01:29:00,2836E-2,5C000000,-0724,1008,10208,025.1,045.2,0.605,749.5,01.17,0.508
2014-04-26 01:30:00,2893E-2,5C000000,-0724,1009,10414,025.1,045.2,0.608,749.6,01.17,0.508
2014-04-26 01:31:00,2880E-2,5C000000,-0724,1008,10517,025.1,045.2,0.609,749.6,01.17,0.508
2014-04-26 01:32:00,2874E-2,5C000000,-0724,1009,10438,025.1,045.2,0.609,749.6,01.17,0.508
2014-04-26 01:33:00,2852E-2,5C000000,-0724,1009,10429,025.1,045.2,0.605,749.6,01.17,0.508
2014-04-26 01:34:00,2853E-2,5C000000,-0724,1010,10381,025.1,045.2,0.606,749.6,01.17,0.508
2014-04-26 01:35:00,2886E-2,5C000000,-0724,1009,10505,025.1,045.2,0.605,749.6,01.17,0.508
2014-04-26 01:36:00,2899E-2,5C000000,-0724,1010,10447,025.1,045.2,0.604,749.6,01.17,0.508
2014-04-26 01:37:00,2871E-2,5C000000,-0724,1008,10569,025.1,045.2,0.602,749.6,01.17,0.508
2014-04-26 01:38:00,2899E-2,5C000000,-0724,1010,10366,025.1,045.2,0.605,749.6,01.17,0.508
2014-04-26 01:39:00,2869E-2,5C000000,-0724,1010,10536,025.1,045.2,0.603,749.7,01.17,0.508
2014-04-26 01:40:00,2813E-2,5C000000,-0724,1007,10394,025.1,045.2,0.600,749.6,01.17,0.508
2014-04-26 01:41:00,2868E-2,5C000000,-0724,1008,10445,025.1,045.2,0.602,749.7,01.17,0.508
2014-04-26 01:42:00,2868E-2,5C000000,-0724,1008,10460,025.1,045.2,0.602,749.7,01.17,0.508
2014-04-26 01:43:00,2848E-2,5C000000,-0724,1010,10484,025.1,045.2,0.597,749.6,01.17,0.508
2014-04-26 01:44:00,2873E-2,5C000000,-0724,1010,10439,025.1,045.2,0.599,749.7,01.17,0.508
2014-04-26 01:45:00,2851E-2,5C000000,-0724,1011,10515,025.1,045.2,0.602,749.8,01.17,0.508
2014-04-26 01:46:00,2853E-2,5C000000,-0724,1010,10408,025.1,045.2,0.598,749.7,01.17,0.508
2014-04-26 01:47:00,2836E-2,5C000000,-0724,1011,10482,025.1,045.2,0.597,749.7,01.17,0.508
2014-04-26 01:48:00,2901E-2,5C000000,-0724,1011,10400,025.1,045.2,0.595,749.7,01.17,0.508
2014-04-26 01:49:00,2864E-2,5C000000,-0724,1011,10410,025.1,045.2,0.596,749.7,01.17,0.508
2014-04-26 01:50:00,2883E-2,5C000000,-0724,1011,10389,025.1,045.2,0.595,749.7,01.17,0.508
2014-04-26 01:51:00,2872E-2,5C000000,-0724,1011,10594,025.2,045.2,0.597,749.8,01.17,0.508
2014-04-26 01:52:00,2871E-2,5C000000,-0724,1011,10395,025.1,045.2,0.595,749.8,01.17,0.508
2014-04-26 01:53:00,2824E-2,5C000000,-0724,1010,10424,025.2,045.2,0.594,749.8,01.17,0.508
2014-04-26 01:54:00,2840E-2,5C000000,-0724,1012,10489,025.2,045.2,0.593,749.8,01.17,0.508
2014-04-26 01:55:00,2882E-2,5C000000,-0724,1011,10322,025.2,045.2,0.595,749.8,01.17,0.508
2014-04-26 01:56:00,2888E-2,5C000000,-0724,1011,10226,025.2,045.2,0.592,749.8,01.17,0.508
2014-04-26 01:57:00,2875E-2,5C000000,-0724,1013,10502,025.2,045.2,0.589,749.8,01.17,0.508
2014-04-26 01:58:00,2913E-2,5C000000,-0724,1011,10319,025.2,045.2,0.587,749.8,01.17,0.508
2014-04-26 01:59:00,2897E-2,5C000000,-0724,1011,10363,025.2,045.2,0.586,749.8,01.17,0.508
2014-04-26 02:00:00,2884E-2,5C000000,-0724,1013,10327,025.2,045.2,0.588,749.9,01.17,0.508
2014-04-26 02:01:00,2902E-2,5C000000,-0724,1012,10307,025.2,045.2,0.585,749.8,01.17,0.508
2014-04-26 02:02:00,2965E-2,5C000000,-0724,1013,10348,025.2,045.2,0.584,749.8,01.17,0.508
2014-04-26 02:03:00,2910E-2,5C000000,-0724,1011,10109,025.2,045.2,0.584,749.8,01.17,0.508
2014-04-26 02:04:00,2901E-2,5C000000,-0724,1011,10509,025.2,045.2,0.586,749.9,01.17,0.508
2014-04-26 02:05:00,2931E-2,5C000000,-0724,1012,10222,025.2,045.2,0.582,749.9,01.17,0.508
2014-04-26 02:06:00,2903E-2,5C000000,-0724,1010,10472,025.2,045.2,0.582,749.9,01.17,0.508
2014-04-26 02:07:00,2904E-2,5C000000,-0724,1011,10145,025.2,045.2,0.580,749.8,01.17,0.508
2014-04-26 02:08:00,2889E-2,5C000000,-0724,1012,10353,025.2,045.2,0.579,749.8,01.17,0.508
2014-04-26 02:09:00,2914E-2,5C000000,-0724,1011,10270,025.2,045.2,0.578,749.8,01.17,0.508
2014-04-26 02:10:00,2891E-2,5C000000,-0724,1011,10402,025.2,045.2,0.576,749.9,01.17,0.508
2014-04-26 02:11:00,2867E-2,5C000000,-0724,1011,10389,025.2,045.2,0.578,749.9,01.17,0.508
2014-04-26 02:12:00,2939E-2,5C000000,-0724,1012,10337,025.3,045.2,0.576,749.9,01.17,0.508
2014-04-26 02:13:00,2917E-2,5C000000,-0724,1011,10358,025.2,045.2,0.576,749.9,01.17,0.508
2014-04-26 02:14:00,2898E-2,5C000000,-0724,1012,10327,025.2,045.2,0.574,749.9,01.17,0.508
2014-04-26 02:15:00,2946E-2,5C000000,-0724,1012,10526,025.2,045.2,0.574,749.9,01.17,0.508
2014-04-26 02:16:00,2916E-2,5C000000,-0724,1011,10589,025.2,045.2,0.572,749.9,01.17,0.508
2014-04-26 02:17:00,2937E-2,5C000000,-0724,1011,10447,025.3,045.2,0.573,750.0,01.17,0.508
2014-04-26 02:18:00,2917E-2,5C000000,-0724,1011,10330,025.3,045.2,0.571,750.0,01.17,0.508
2014-04-26 02:19:00,2940E-2,5C000000,-0724,1011,10488,025.3,045.2,0.567,749.9,01.17,0.508
2014-04-26 02:20:00,2919E-2,5C000000,-0724,1010,10277,025.3,045.2,0.568,750.0,01.17,0.508
2014-04-26 02:21:00,2945E-2,5C000000,-0724,1012,10578,025.3,045.2,0.568,750.0,01.17,0.508
2014-04-26 02:22:00,2938E-2,5C000000,-0724,1013,10427,025.3,045.2,0.564,750.0,01.17,0.508
2014-04-26 02:23:00,2983E-2,5C000000,-0724,1012,10345,025.3,045.2,0.560,749.9,01.17,0.508
2014-04-26 02:24:00,2941E-2,5C000000,-0724,1013,10254,025.3,045.2,0.562,750.0,01.17,0.508
2014-04-26 02:25:00,2977E-2,5C000000,-0724,1012,10420,025.3,045.2,0.562,750.0,01.17,0.508
2014-04-26 02:26:00,2925E-2,5C000000,-0724,1012,10326,025.3,045.2,0.558,749.9,01.17,0.508
2014-04-26 02:27:00,3001E-2,5C000000,-0724,1012,10219,025.3,045.2,0.559,750.0,01.17,0.508
2014-04-26 02:28:00,2959E-2,5C000000,-0724,1012,10421,025.3,045.2,0.556,750.0,01.17,0.508
2014-04-26 02:29:00,2861E-2,5C000000,-0724,1010,10384,025.3,045.2,0.556,750.0,01.17,0.508
2014-04-26 02:30:00,2760E-2,5C000000,-0724,1008,10615,025.3,045.2,0.557,750.1,01.17,0.508
2014-04-26 02:31:00,2790E-2,5C000000,-0724,1007,10459,025.3,045.2,0.553,750.0,01.17,0.508
2014-04-26 02:32:00,2734E-2,5C000000,-0724,1008,10592,025.3,045.2,0.550,750.0,01.17,0.508
2014-04-26 02:33:00,2752E-2,5C000000,-0724,1006,10483,025.3,045.2,0.549,750.0,01.17,0.508
2014-04-26 02:34:00,2738E-2,5C000000,-0724,1006,10499,025.3,045.2,0.551,750.1,01.17,0.508
2014-04-26 02:35:00,2729E-2,5C000000,-0724,1006,10526,025.3,045.2,0.548,750.1,01.17,0.508
2014-04-26 02:36:00,2782E-2,5C000000,-0724,1005,10468,025.3,045.2,0.543,750.0,01.17,0.508
2014-04-26 02:37:00,2775E-2,5C000000,-0724,1005,10549,025.3,045.2,0.547,750.1,01.17,0.508
2014-04-26 02:38:00,2725E-2,5C000000,-0724,1004,10366,025.3,045.2,0.547,750.2,01.17,0.508
2014-04-26 02:39:00,2751E-2,5C000000,-0724,1003,10378,025.4,045.2,0.546,750.2,01.17,0.508
2014-04-26 02:40:00,2731E-2,5C000000,-0724,1003,10469,025.4,045.2,0.542,750.1,01.17,0.508
2014-04-26 02:41:00,2781E-2,5C000000,-0724,1002,10577,025.4,045.2,0.540,750.1,01.17,0.508
2014-04-26 02:42:00,2787E-2,5C000000,-0724,1002,10414,025.4,045.2,0.542,750.2,01.17,0.508
2014-04-26 02:43:00,2795E-2,5C000000,-0724,1002,10552,025.4,045.2,0.545,750.2,01.17,0.508
2014-04-26 02:44:00,2793E-2,5C000000,-0724,1002,10505,025.4,045.2,0.545,750.3,01.17,0.508
2014-04-26 02:45:00,2767E-2,5C000000,-0724,1003,10590,025.4,045.2,0.544,750.3,01.17,0.508
2014-04-26 02:46:00,2781E-2,5C000000,-0724,1002,10609,025.4,045.2,0.539,750.2,01.17,0.508
2014-04-26 02:47:00,2722E-2,5C000000,-0724,1003,10535,025.4,045.2,0.535,750.2,01.17,0.508
2014-04-26 02:48:00,2769E-2,5C000000,-0724,1002,10452,025.4,045.2,0.537,750.2,01.17,0.508
2014-04-26 02:49:00,2739E-2,5C000000,-0724,1001,10352,025.4,045.2,0.538,750.3,01.17,0.508
2014-04-26 02:50:00,2735E-2,5C000000,-0724,1001,10546,025.4,045.2,0.536,750.3,01.17,0.508
2014-04-26 02:51:00,2791E-2,5C000000,-0724,1001,10615,025.4,045.3,0.536,750.3,01.17,0.508
2014-04-26 02:52:00,2742E-2,5C000000,-0724,1001,10530,025.4,045.2,0.533,750.3,01.17,0.508
2014-04-26 02:53:00,2752E-2,5C000000,-0724,1001,10449,025.4,045.2,0.534,750.4,01.17,0.508
2014-04-26 02:54:00,2784E-2,5C000000,-0724,1000,10543,025.4,045.2,0.527,750.2,01.17,0.508
2014-04-26 02:55:00,2786E-2,5C000000,-0724,1000,10363,025.5,045.2,0.526,750.3,01.17,0.508
2014-04-26 02:56:00,2726E-2,5C000000,-0724,0999,10627,025.4,045.2,0.532,750.4,01.17,0.508
2014-04-26 02:57:00,2783E-2,5C000000,-0724,0998,10481,025.4,045.2,0.530,750.4,01.17,0.508
2014-04-26 02:58:00,2779E-2,5C000000,-0724,0999,10443,025.5,045.2,0.525,750.4,01.17,0.508
2014-04-26 02:59:00,2755E-2,5C000000,-0724,0998,10610,025.4,045.2,0.523,750.3,01.17,0.508
2014-04-26 03:00:00,2719E-2,5C000000,-0724,0997,10693,025.4,045.2,0.521,750.3,01.17,0.508
2014-04-26 03:01:00,2766E-2,5C000000,-0724,0998,10572,025.5,045.2,0.523,750.4,01.17,0.508
2014-04-26 03:02:00,2724E-2,5C000000,-0724,0998,10552,025.5,045.2,0.522,750.4,01.17,0.508
2014-04-26 03:03:00,2770E-2,5C000000,-0724,0997,10401,025.5,045.2,0.520,750.4,01.17,0.508
2014-04-26 03:04:00,2769E-2,5C000000,-0724,0997,10422,025.5,045.2,0.520,750.4,01.17,0.508
2014-04-26 03:05:00,2741E-2,5C000000,-0724,0997,10530,025.5,045.2,0.517,750.4,01.17,0.508
2014-04-26 03:06:00,2757E-2,5C000000,-0724,0998,10380,025.5,045.2,0.514,750.4,01.17,0.508
2014-04-26 03:07:00,2779E-2,5C000000,-0724,0997,10629,025.5,045.2,0.517,750.4,01.17,0.508
2014-04-26 03:08:00,2760E-2,5C000000,-0724,0996,10624,025.5,045.2,0.519,750.4,01.17,0.508
2014-04-26 03:09:00,2755E-2,5C000000,-0724,0997,10565,025.5,045.2,0.520,750.4,01.17,0.508
2014-04-26 03:10:00,2798E-2,5C000000,-0724,0998,10527,025.5,045.2,0.519,750.4,01.17,0.508
2014-04-26 03:11:00,2778E-2,5C000000,-0724,0998,10612,025.5,045.2,0.518,750.5,01.17,0.508
2014-04-26 03:12:00,2816E-2,5C000000,-0724,0997,10556,025.5,045.2,0.518,750.5,01.17,0.508
2014-04-26 03:13:00,2770E-2,5C000000,-0724,0998,10514,025.5,045.2,0.512,750.4,01.17,0.508
2014-04-26 03:14:00,2767E-2,5C000000,-0724,0998,10612,025.5,045.2,0.513,750.4,01.17,0.508
2014-04-26 03:15:00,2812E-2,5C000000,-0724,0998,10486,025.5,045.2,0.513,750.5,01.17,0.508
2014-04-26 03:16:00,2739E-2,5C000000,-0724,0997,10598,025.5,045.2,0.512,750.5,01.17,0.508
2014-04-26 03:17:00,2824E-2,5C000000,-0724,0997,10440,025.5,045.2,0.509,750.5,01.17,0.508
2014-04-26 03:18:00,2756E-2,5C000000,-0724,0999,10527,025.5,045.2,0.507,750.4,01.17,0.508
2014-04-26 03:19:00,2782E-2,5C000000,-0724,0997,10543,025.5,045.2,0.507,750.4,01.17,0.508
2014-04-26 03:20:00,2794E-2,5C000000,-0724,0999,10423,025.5,045.2,0.509,750.6,01.17,0.508
2014-04-26 03:21:00,2792E-2,5C000000,-0724,0999,10460,025.6,045.2,0.504,750.5,01.17,0.508
2014-04-26 03:22:00,2757E-2,5C000000,-0724,0999,10356,025.6,045.2,0.501,750.5,01.17,0.508
2014-04-26 03:23:00,2756E-2,5C000000,-0724,1000,10521,025.6,045.2,0.502,750.5,01.17,0.508
2014-04-26 03:24:00,2835E-2,5C000000,-0724,0999,10638,025.6,045.2,0.504,750.6,01.17,0.508
2014-04-26 03:25:00,2795E-2,5C000000,-0724,0999,10576,025.6,045.2,0.501,750.6,01.17,0.508
2014-04-26 03:26:00,2789E-2,5C000000,-0724,1000,10434,025.6,045.2,0.496,750.5,01.17,0.508
2014-04-26 03:27:00,2826E-2,5C000000,-0724,1000,10494,025.6,045.2,0.498,750.6,01.17,0.508
2014-04-26 03:28:00,2813E-2,5C000000,-0724,0999,10519,025.6,045.2,0.494,750.5,01.17,0.508
2014-04-26 03:29:00,2783E-2,5C000000,-0724,0999,10486,025.6,045.2,0.492,750.5,01.17,0.508
2014-04-26 03:30:00,2813E-2,5C000000,-0724,1001,10400,025.6,045.2,0.489,750.5,01.17,0.508
2014-04-26 03:31:00,2775E-2,5C000000,-0724,1002,10617,025.6,045.2,0.489,750.5,01.17,0.508
2014-04-26 03:32:00,2815E-2,5C000000,-0724,1001,10398,025.6,045.2,0.490,750.6,01.17,0.508
2014-04-26 03:33:00,2777E-2,5C000000,-0724,1001,10556,025.6,045.2,0.489,750.6,01.17,0.508
2014-04-26 03:34:00,2803E-2,5C000000,-0724,1001,10511,025.6,045.2,0.486,750.6,01.17,0.508
2014-04-26 03:35:00,2841E-2,5C000000,-0724,1001,10454,025.6,045.2,0.485,750.6,01.17,0.508
2014-04-26 03:36:00,2811E-2,5C000000,-0724,1001,10512,025.6,045.2,0.485,750.6,01.17,0.508
2014-04-26 03:37:00,2788E-2,5C000000,-0724,1002,10454,025.6,045.2,0.482,750.6,01.17,0.508
2014-04-26 03:38:00,2868E-2,5C000000,-0724,1003,10525,025.6,045.3,0.480,750.6,01.17,0.508
2014-04-26 03:39:00,2855E-2,5C000000,-0724,1003,10303,025.6,045.2,0.478,750.6,01.17,0.508
2014-04-26 03:40:00,2861E-2,5C000000,-0724,1002,10566,025.6,045.2,0.481,750.7,01.17,0.508
2014-04-26 03:41:00,2854E-2,5C000000,-0724,1003,10638,025.7,045.3,0.477,750.7,01.17,0.508
2014-04-26 03:42:00,2815E-2,5C000000,-0724,1004,10510,025.7,045.2,0.474,750.6,01.17,0.508
2014-04-26 03:43:00,2832E-2,5C000000,-0724,1003,10463,025.7,045.2,0.470,750.6,01.17,0.508
2014-04-26 03:44:00,2853E-2,5C000000,-0724,1004,10583,025.7,045.2,0.472,750.6,01.17,0.508
2014-04-26 03:45:00,2858E-2,5C000000,-0724,1003,10450,025.7,045.2,0.470,750.7,01.17,0.508
2014-04-26 03:46:00,2857E-2,5C000000,-0724,1003,10453,025.7,045.2,0.465,750.6,01.17,0.508
2014-04-26 03:47:00,2844E-2,5C000000,-0724,1004,10629,025.7,045.3,0.464,750.6,01.17,0.508
2014-04-26 03:48:00,2845E-2,5C000000,-0724,1005,10507,025.7,045.2,0.464,750.7,01.17,0.508
2014-04-26 03:49:00,2876E-2,5C000000,-0724,1004,10527,025.7,045.2,0.464,750.7,01.17,0.508
2014-04-26 03:50:00,2844E-2,5C000000,-0724,1005,10488,025.7,045.2,0.460,750.7,01.17,0.508
2014-04-26 03:51:00,2831E-2,5C000000,-0724,1004,10598,025.7,045.2,0.457,750.6,01.17,0.508
2014-04-26 03:52:00,2812E-2,5C000000,-0724,1005,10491,025.7,045.2,0.460,750.7,01.17,0.508
2014-04-26 03:53:00,2823E-2,5C000000,-0724,1005,10512,025.7,045.2,0.458,750.7,01.17,0.508
2014-04-26 03:54:00,2824E-2,5C000000,-0724,1006,10369,025.7,045.2,0.454,750.6,01.17,0.508
2014-04-26 03:55:00,2854E-2,5C000000,-0724,1007,10486,025.7,045.2,0.454,750.6,01.17,0.508
2014-04-26 03:56:00,2818E-2,5C000000,-0724,1005,10510,025.7,045.2,0.453,750.7,01.17,0.508
2014-04-26 03:57:00,2847E-2,5C000000,-0724,1005,10534,025.7,045.2,0.449,750.6,01.17,0.508
2014-04-26 03:58:00,2828E-2,5C000000,-0724,1006,10528,025.8,045.2,0.448,750.6,01.17,0.508
2014-04-26 03:59:00,2861E-2,5C000000,-0724,1005,10321,025.7,045.2,0.444,750.6,01.17,0.508
2014-04-26 04:00:00,2903E-2,5C000000,-0724,1006,10556,025.7,045.2,0.443,750.6,01.17,0.508
2014-04-26 04:01:00,2852E-2,5C000000,-0724,1007,10540,025.8,045.2,0.443,750.7,01.17,0.508
2014-04-26 04:02:00,2886E-2,5C000000,-0724,1006,10371,025.7,045.2,0.439,750.6,01.17,0.508
2014-04-26 04:03:00,2846E-2,5C000000,-0724,1007,10331,025.8,045.2,0.440,750.7,01.17,0.508
2014-04-26 04:04:00,2859E-2,5C000000,-0724,1007,10537,025.8,045.2,0.438,750.7,01.17,0.508
2014-04-26 04:05:00,2855E-2,5C000000,-0724,1007,10401,025.8,045.2,0.438,750.7,01.17,0.508
2014-04-26 04:06:00,2847E-2,5C000000,-0724,1007,10293,025.8,045.2,0.435,750.7,01.17,0.508
2014-04-26 04:07:00,2918E-2,5C000000,-0724,1008,10551,025.8,045.2,0.432,750.6,01.17,0.508
2014-04-26 04:08:00,2874E-2,5C000000,-0724,1007,10343,025.8,045.2,0.430,750.6,01.17,0.508
2014-04-26 04:09:00,2905E-2,5C000000,-0724,1008,10437,025.8,045.3,0.431,750.7,01.17,0.508
2014-04-26 04:10:00,2908E-2,5C000000,-0724,1007,10563,025.8,045.2,0.428,750.7,01.17,0.508
2014-04-26 04:11:00,2879E-2,5C000000,-0724,1008,10341,025.8,045.2,0.425,750.7,01.17,0.508
2014-04-26 04:12:00,2894E-2,5C000000,-0724,1009,10476,025.8,045.2,0.424,750.7,01.17,0.508
2014-04-26 04:13:00,2917E-2,5C000000,-0724,1008,10470,025.8,045.2,0.422,750.7,01.17,0.508
2014-04-26 04:14:00,2885E-2,5C000000,-0724,1010,10599,025.8,045.2,0.420,750.7,01.17,0.508
2014-04-26 04:15:00,2903E-2,5C000000,-0724,1008,10254,025.8,045.2,0.417,750.7,01.17,0.508
2014-04-26 04:16:00,2915E-2,5C000000,-0724,1009,10473,025.8,045.2,0.414,750.6,01.17,0.508
2014-04-26 04:17:00,2875E-2,5C000000,-0724,1008,10258,025.9,045.2,0.415,750.7,01.17,0.508
2014-04-26 04:18:00,2931E-2,5C000000,-0724,1008,10476,025.8,045.2,0.413,750.7,01.17,0.508
2014-04-26 04:19:00,2904E-2,5C000000,-0724,1010,10358,025.8,045.2,0.409,750.7,01.17,0.508
2014-04-26 04:20:00,2903E-2,5C000000,-0724,1010,10443,025.8,045.2,0.410,750.7,01.17,0.508